Date,TemperatureHighF,TemperatureAvgF,TemperatureLowF,DewpointHighF,DewpointAvgF,DewpointLowF,HumidityHigh,HumidityAvg,HumidityLow,PressureMaxIn,PressureMinIn,WindSpeedMaxMPH,WindSpeedAvgMPH,GustSpeedMaxMPH,PrecipitationSumIn
2013-1-1,39.0,36.5,32.0,32.0,30.2,21.0,86,77,63,30.02,29.89,14,7,16,0.00
2013-1-2,32.0,29.0,23.0,21.0,17.1,14.0,79,60,46,30.21,29.99,22,9,24,0.00
2013-1-3,34.0,28.4,21.0,19.0,17.8,14.0,79,64,50,30.22,30.11,18,7,20,0.00
2013-1-4,37.0,33.5,30.0,23.0,21.8,19.0,69,62,55,30.14,30.03,23,9,24,0.00
2013-1-5,39.0,32.9,30.0,27.0,22.2,21.0,80,64,51,30.36,30.08,20,8,24,0.00
2013-1-6,46.0,37.6,30.0,34.0,29.3,23.0,100,74,48,30.21,30.01,15,4,21,0.06
2013-1-7,45.0,37.6,30.0,32.0,28.9,27.0,86,70,56,30.42,30.11,17,8,21,0.00
2013-1-8,45.0,37.2,30.0,32.0,30.2,27.0,93,76,61,30.41,30.36,10,4,0,0.00
2013-1-9,48.0,40.3,30.0,39.0,34.4,30.0,100,81,61,30.39,30.20,12,4,0,0.00
2013-1-10,46.0,41.3,36.0,32.0,28.3,27.0,74,60,49,30.56,30.32,17,8,23,0.00
2013-1-11,45.0,40.3,34.0,43.0,35.1,28.0,100,82,64,30.51,30.09,10,4,0,0.18
2013-1-12,54.0,45.7,41.0,48.0,44.5,41.0,100,96,81,30.18,30.09,7,2,0,0.00
2013-1-13,46.0,43.9,39.0,46.0,43.9,39.0,100,100,100,30.16,30.00,9,3,0,0.00
2013-1-14,52.0,48.1,39.0,52.0,43.7,32.0,100,86,57,30.30,29.96,16,7,20,0.14
2013-1-15,39.0,36.5,34.0,37.0,33.0,28.0,100,87,69,30.35,30.18,10,4,0,0.32
2013-1-16,37.0,34.3,32.0,36.0,33.9,32.0,100,98,93,30.18,29.83,16,5,18,0.81
2013-1-17,39.0,37.8,34.0,36.0,31.2,28.0,93,76,64,30.11,29.94,16,9,22,0.00
2013-1-18,36.0,30.9,27.0,30.0,16.9,9.0,80,57,36,30.48,30.01,22,8,31,0.01
2013-1-19,48.0,36.9,28.0,32.0,25.9,14.0,86,64,48,30.40,29.95,12,6,17,0.00
2013-1-20,54.0,41.4,30.0,30.0,23.6,14.0,69,50,25,30.06,29.78,29,13,37,0.00
2013-1-21,32.0,28.8,25.0,27.0,14.1,10.0,92,55,43,30.10,29.85,20,6,28,0.33
2013-1-22,25.0,18.3,12.0,19.0,-0.4,-6.0,85,43,32,30.25,29.88,25,16,33,0.34
2013-1-23,21.0,15.4,10.0,3.0,0.2,-4.0,66,50,35,30.28,30.16,18,8,22,0.00
2013-1-24,27.0,19.5,14.0,9.0,3.1,-4.0,72,50,25,30.45,30.10,22,9,30,0.00
2013-1-25,21.0,17.8,12.0,16.0,6.0,0.0,92,62,38,30.46,30.05,14,4,0,0.43
2013-1-26,28.0,21.4,14.0,16.0,13.2,10.0,92,71,54,30.39,30.05,15,9,21,0.00
2013-1-27,34.0,25.8,14.0,18.0,14.8,10.0,85,63,47,30.56,30.40,14,6,16,0.00
2013-1-28,37.0,31.9,28.0,36.0,30.1,19.0,100,93,68,30.50,30.04,12,4,0,0.23
2013-1-29,57.0,46.0,37.0,48.0,43.2,36.0,100,90,71,30.15,30.02,10,5,0,0.00
2013-1-30,66.0,53.0,43.0,61.0,51.8,43.0,100,96,77,30.04,29.35,23,7,31,1.25
2013-1-31,57.0,37.0,28.0,57.0,22.3,10.0,100,56,43,29.85,29.24,36,18,44,0.01
2013-2-1,30.0,26.8,21.0,21.0,9.7,3.0,74,48,33,30.28,29.83,31,16,38,0.02
2013-2-2,28.0,22.9,18.0,23.0,11.6,5.0,92,63,39,30.32,30.02,16,7,22,0.57
2013-2-3,32.0,27.8,23.0,28.0,23.0,16.0,92,82,58,30.02,29.81,23,4,30,0.31
2013-2-4,32.0,26.4,21.0,23.0,13.4,10.0,79,57,46,30.05,29.88,24,9,30,0.00
2013-2-5,34.0,30.8,28.0,32.0,28.3,23.0,100,90,79,29.94,29.87,10,3,0,0.17
2013-2-6,37.0,32.6,27.0,32.0,26.5,18.0,100,80,54,30.34,29.92,21,8,27,0.00
2013-2-7,34.0,30.5,23.0,23.0,17.5,12.0,79,58,40,30.47,30.26,13,6,18,0.00
2013-2-8,36.0,34.0,32.0,36.0,31.6,23.0,100,91,69,30.26,29.71,22,8,30,1.66
2013-2-9,32.0,29.0,25.0,30.0,17.7,12.0,92,62,50,30.36,29.80,29,17,38,0.08
2013-2-10,39.0,29.8,18.0,30.0,14.0,9.0,92,54,27,30.47,30.29,9,5,0,0.00
2013-2-11,48.0,39.9,32.0,48.0,39.2,28.0,100,98,80,30.30,29.69,15,6,24,0.19
2013-2-12,45.0,39.4,30.0,39.0,28.4,25.0,93,65,48,29.99,29.79,28,12,37,0.00
2013-2-13,43.0,35.3,30.0,34.0,28.0,23.0,100,75,56,29.97,29.68,12,5,16,2.06
2013-2-14,45.0,36.7,32.0,34.0,30.3,23.0,100,79,45,30.02,29.73,13,5,0,0.00
2013-2-15,55.0,41.8,32.0,36.0,32.4,28.0,100,72,40,30.02,29.93,15,6,20,1.11
2013-2-16,34.0,32.7,30.0,34.0,28.5,18.0,100,85,54,30.00,29.80,13,6,20,0.39
2013-2-17,32.0,27.3,23.0,21.0,10.6,3.0,79,49,33,30.09,29.77,32,18,39,0.05
2013-2-18,36.0,27.3,19.0,16.0,9.7,3.0,62,47,31,30.32,30.09,33,11,33,0.00
2013-2-19,41.0,35.7,30.0,41.0,29.4,14.0,100,79,46,30.18,29.71,22,7,23,0.15
2013-2-20,34.0,28.9,23.0,27.0,15.3,10.0,74,56,40,30.07,29.80,24,17,32,0.00
2013-2-21,34.0,29.3,23.0,18.0,14.7,10.0,63,54,46,30.30,30.05,20,14,28,0.00
2013-2-22,34.0,30.6,25.0,32.0,22.0,16.0,100,70,59,30.38,30.23,13,6,21,0.00
2013-2-23,43.0,38.4,32.0,43.0,38.3,32.0,100,100,93,30.24,29.82,13,5,0,0.00
2013-2-24,45.0,37.7,32.0,39.0,30.8,21.0,100,78,51,30.05,29.78,27,11,36,0.00
2013-2-25,37.0,32.5,30.0,27.0,23.9,21.0,80,70,63,30.23,30.05,12,6,0,0.00
2013-2-26,43.0,36.4,28.0,37.0,30.0,23.0,100,77,65,30.23,29.76,27,10,37,0.34
2013-2-27,50.0,43.4,37.0,43.0,38.8,32.0,100,85,61,29.76,29.52,30,9,35,0.05
2013-2-28,43.0,38.8,37.0,36.0,33.7,32.0,93,80,65,29.69,29.63,14,7,20,0.00
2013-3-1,41.0,37.3,34.0,32.0,29.5,27.0,93,74,60,29.83,29.68,14,10,20,0.00
2013-3-2,37.0,34.2,32.0,25.0,22.8,21.0,74,63,51,29.82,29.75,15,10,22,0.00
2013-3-3,36.0,31.7,28.0,23.0,20.1,14.0,69,62,46,29.82,29.75,17,13,28,0.00
2013-3-4,37.0,32.3,28.0,21.0,19.7,18.0,63,59,51,29.99,29.82,28,16,32,0.00
2013-3-5,46.0,36.5,28.0,28.0,24.7,21.0,80,62,45,30.04,29.92,14,8,22,0.00
2013-3-6,39.0,36.4,34.0,36.0,32.9,28.0,100,86,69,29.96,29.74,35,15,38,0.32
2013-3-7,45.0,39.0,34.0,28.0,26.3,21.0,74,60,45,30.10,29.95,22,13,29,0.00
2013-3-8,43.0,36.9,32.0,28.0,25.1,19.0,86,63,51,30.25,30.08,23,15,29,0.43
2013-3-9,61.0,46.4,32.0,23.0,21.0,18.0,64,39,19,30.32,30.23,16,8,22,0.00
2013-3-10,57.0,46.3,36.0,36.0,25.9,16.0,93,47,24,30.35,30.26,10,6,0,0.00
2013-3-11,55.0,46.1,37.0,48.0,42.2,36.0,100,87,62,30.30,30.04,13,6,18,0.00
2013-3-12,55.0,50.2,41.0,55.0,47.4,32.0,100,90,65,30.01,29.73,24,11,27,0.58
2013-3-13,48.0,39.9,34.0,36.0,28.4,21.0,80,64,42,29.98,29.86,24,11,29,0.00
2013-3-14,39.0,34.3,30.0,21.0,16.4,12.0,68,48,32,30.03,29.95,30,19,35,0.00
2013-3-15,52.0,38.4,28.0,32.0,20.7,12.0,75,49,34,30.04,29.76,17,8,24,0.00
2013-3-16,45.0,36.8,32.0,32.0,31.2,27.0,100,82,60,29.92,29.73,15,5,23,0.26
2013-3-17,37.0,33.5,30.0,32.0,26.2,19.0,100,76,47,30.28,29.92,10,5,16,0.00
2013-3-18,36.0,33.2,30.0,34.0,24.0,14.0,100,71,46,30.35,29.92,20,10,28,0.23
2013-4-5,59.0,55.5,52.0,28.0,22.6,21.0,40,28,22,29.89,29.84,16,14,21,0.00
2013-4-6,43.0,43.0,43.0,14.0,14.0,14.0,30,30,30,30.32,30.32,16,16,16,0.00
2013-4-7,61.0,59.4,57.0,37.0,36.6,36.0,44,42,41,30.12,30.02,15,11,29,0.00
2013-4-8,73.0,58.8,54.0,43.0,43.0,43.0,66,58,33,30.02,30.00,5,4,0,0.00
2013-4-9,81.0,79.2,77.0,52.0,49.8,48.0,41,36,32,30.05,29.99,17,14,24,0.00
2013-5-13,55.0,48.3,41.0,30.0,27.0,23.0,65,45,32,30.15,30.06,20,10,24,0.00
2013-5-14,59.0,48.2,34.0,39.0,30.4,27.0,93,53,30,30.20,30.07,16,6,21,0.01
2013-5-15,70.0,58.0,48.0,61.0,50.5,39.0,93,76,59,30.10,29.74,10,4,16,0.04
2013-5-16,81.0,64.3,59.0,64.0,45.6,-99.9,93,75,46,29.91,29.76,15,5,16,0.00
2013-5-17,73.0,64.7,55.0,55.0,41.2,-99.9,82,46,30,30.21,29.91,12,6,16,0.00
2013-5-18,68.0,60.8,57.0,57.0,50.8,45.0,100,71,45,30.29,30.20,14,6,17,0.01
2013-5-19,63.0,59.9,57.0,63.0,59.9,57.0,100,100,100,30.27,30.16,13,7,16,0.00
2013-5-20,77.0,67.8,61.0,68.0,64.5,61.0,100,90,73,30.18,30.02,8,3,0,0.00
2013-5-21,81.0,72.0,66.0,70.0,67.8,64.0,100,87,65,30.03,29.91,10,4,0,0.00
2013-5-22,84.0,74.9,66.0,72.0,69.3,64.0,100,84,54,29.96,29.87,13,4,0,0.00
2013-5-23,79.0,71.1,64.0,70.0,65.9,63.0,100,84,65,29.93,29.79,13,5,16,0.35
2013-5-24,64.0,54.8,45.0,63.0,49.3,36.0,100,82,57,30.08,29.75,27,12,35,0.07
2013-5-25,63.0,52.9,45.0,39.0,34.4,32.0,81,51,33,30.12,30.04,29,16,36,0.00
2013-5-26,68.0,57.3,46.0,37.0,35.1,32.0,65,44,26,30.24,30.09,28,11,31,0.00
2013-5-27,72.0,59.6,43.0,46.0,38.7,34.0,81,48,28,30.30,30.19,13,4,16,0.00
2013-5-28,64.0,59.6,54.0,64.0,56.3,45.0,100,89,58,30.23,30.13,10,3,0,0.07
2013-5-29,88.0,74.0,61.0,70.0,64.2,61.0,100,75,40,30.14,30.09,14,4,20,0.00
2013-5-30,90.0,79.0,63.0,68.0,64.5,61.0,100,64,40,30.21,30.13,14,5,17,0.00
2013-5-31,88.0,79.0,70.0,70.0,64.6,55.0,88,64,35,30.18,30.07,10,4,18,0.00
2013-6-1,88.0,77.7,64.0,70.0,66.9,64.0,100,71,48,30.09,29.96,10,4,0,0.00
2013-6-2,82.0,76.8,70.0,72.0,67.2,64.0,88,72,58,29.96,29.85,14,5,0,0.02
2013-6-3,81.0,71.3,64.0,68.0,63.6,55.0,100,78,50,29.93,29.85,12,5,0,0.25
2013-6-4,73.0,64.5,55.0,57.0,46.1,43.0,82,52,35,30.15,29.93,15,7,18,0.00
2013-6-5,75.0,65.3,52.0,52.0,44.3,39.0,72,48,30,30.23,30.11,10,4,0,0.00
2013-6-6,72.0,62.8,55.0,63.0,56.1,50.0,100,80,52,30.15,29.97,16,6,20,0.13
2013-6-7,68.0,64.2,61.0,66.0,64.2,61.0,100,100,93,29.97,29.62,18,7,25,3.01
2013-6-8,75.0,67.4,61.0,64.0,61.8,57.0,100,82,60,30.12,29.67,16,8,22,0.00
2013-6-9,79.0,70.0,57.0,64.0,58.7,55.0,93,69,47,30.24,30.12,8,3,0,0.00
2013-6-10,73.0,69.4,64.0,72.0,68.2,63.0,100,96,77,30.18,29.81,14,7,18,1.90
2013-6-11,79.0,72.4,66.0,70.0,64.7,59.0,100,78,61,29.84,29.76,18,10,25,0.00
2013-6-12,81.0,73.1,64.0,63.0,61.2,59.0,88,66,50,29.88,29.83,18,9,22,0.00
2013-6-13,82.0,70.6,61.0,72.0,63.1,57.0,100,77,54,29.87,29.45,22,8,27,0.41
2013-6-14,75.0,64.3,55.0,57.0,54.0,50.0,100,71,43,29.98,29.56,20,10,23,0.08
2013-6-15,79.0,69.0,55.0,59.0,54.8,52.0,93,62,41,30.09,29.98,14,6,22,0.00
2013-6-16,81.0,70.0,57.0,68.0,57.8,46.0,88,66,48,30.05,29.89,13,4,25,0.00
2013-6-17,82.0,72.6,64.0,70.0,65.6,63.0,100,80,54,29.98,29.91,10,4,25,0.14
2013-6-18,75.0,67.0,63.0,72.0,65.0,61.0,100,93,78,29.97,29.83,16,3,25,0.59
2013-6-19,75.0,67.3,61.0,64.0,55.2,48.0,100,68,38,30.19,29.91,12,4,22,0.00
2013-6-20,79.0,66.0,55.0,59.0,54.8,50.0,93,69,44,30.31,30.19,9,3,0,0.00
2013-6-21,73.0,71.5,70.0,54.0,54.0,54.0,56,52,49,30.29,30.28,6,4,0,0.00
2013-6-22,82.0,75.0,70.0,66.0,64.5,64.0,82,72,54,30.28,30.17,5,2,0,0.00
2013-6-23,82.0,72.2,64.0,73.0,68.3,63.0,100,88,65,30.23,30.10,9,2,0,0.11
2013-6-24,84.0,73.1,70.0,72.0,71.0,66.0,100,93,65,30.15,30.06,7,3,0,0.04
2013-6-25,81.0,77.2,68.0,72.0,70.3,64.0,88,79,74,30.04,29.92,5,3,0,0.00
2013-8-5,73.0,68.8,64.0,55.0,53.5,52.0,72,59,46,30.09,30.07,3,2,0,0.00
2013-8-6,72.0,64.7,57.0,64.0,58.3,52.0,88,79,67,30.13,30.08,8,4,0,0.00
2013-8-7,73.0,68.9,64.0,70.0,67.0,64.0,100,94,88,30.14,30.07,8,4,0,0.00
2013-8-8,82.0,72.5,70.0,72.0,69.4,68.0,100,90,69,30.08,30.04,8,4,0,0.00
2013-8-9,82.0,75.7,73.0,75.0,72.4,72.0,100,88,78,30.00,29.89,8,5,0,0.00
2013-8-10,81.0,75.3,68.0,72.0,64.9,61.0,94,71,54,30.10,29.95,9,5,0,0.00
2013-8-21,84.0,73.9,64.0,72.0,66.7,63.0,93,79,54,30.23,30.13,6,3,0,0.00
2013-8-22,81.0,76.7,72.0,73.0,70.2,68.0,94,80,69,30.08,29.96,13,6,0,0.00
2013-8-23,73.0,70.9,66.0,70.0,63.3,57.0,94,78,68,30.13,29.97,10,6,0,0.00
2013-8-24,75.0,70.4,63.0,55.0,54.1,54.0,72,56,46,30.33,30.16,8,5,16,0.00
2013-8-25,77.0,67.3,57.0,61.0,56.4,54.0,100,72,44,30.44,30.35,6,3,0,0.00
2013-8-26,82.0,78.5,72.0,66.0,64.6,63.0,83,63,51,30.18,30.01,10,5,0,0.00
2013-8-27,84.0,75.7,68.0,66.0,65.1,64.0,88,71,54,30.01,29.93,10,7,17,0.00